Location: Newark
(55.5030°N, 22.7200°E)
Time: 06:01:59
(UTC+00:00)

Tiros 1 - All Passes

Search period start: 28 May 2020 00:00
Search period end: 07 June 2020 00:00
Orbit: 630 x 664 km, 48.4° (Epoch: 27 May)

Date Brightness Start Highest point End Pass type
(mag) Time Alt. Az. Time Alt. Az. Time Alt. Az.
28 May - 11:37:45 10° SSE 11:39:31 12° SE 11:41:17 10° ESE daylight
28 May - 13:16:40 10° SW 13:20:38 27° SSE 13:24:34 10° ESE daylight
28 May - 14:57:53 10° WSW 15:02:08 35° S 15:06:21 10° ESE daylight
28 May - 16:39:51 10° WSW 16:43:35 24° SSW 16:47:17 10° SSE daylight
29 May - 12:01:40 10° SSW 12:04:59 19° SSE 12:08:18 10° ESE daylight
29 May - 13:42:08 10° SW 13:46:20 33° S 13:50:30 10° ESE daylight
29 May - 15:23:44 10° WSW 15:27:52 31° SSW 15:31:58 10° SE daylight
29 May - 17:06:15 10° WSW 17:09:08 16° SSW 17:12:00 10° S daylight
30 May - 10:48:02 10° SSE 10:49:30 11° SE 10:50:58 10° SE daylight
30 May - 12:26:39 10° SW 12:30:35 27° SSE 12:34:30 10° ESE daylight
30 May - 14:07:49 10° WSW 14:12:05 35° S 14:16:19 10° ESE daylight
30 May - 15:49:45 10° WSW 15:53:32 25° SSW 15:57:18 10° SSE daylight
31 May - 11:11:42 10° SSW 11:14:57 18° SSE 11:18:11 10° ESE daylight
31 May - 12:52:04 10° SW 12:56:17 33° S 13:00:28 10° ESE daylight
31 May - 14:33:39 10° WSW 14:37:49 32° S 14:41:57 10° SE daylight
31 May - 16:16:04 10° WSW 16:19:06 17° SSW 16:22:06 10° S daylight
01 Jun - 09:58:25 10° SSE 09:59:28 11° SE 10:00:32 10° SE daylight
01 Jun - 11:36:38 10° SW 11:40:32 26° SSE 11:44:25 10° ESE daylight
01 Jun - 13:17:44 10° WSW 13:22:01 35° S 13:26:17 10° ESE daylight
01 Jun - 14:59:38 10° WSW 15:03:30 26° SSW 15:07:19 10° SE daylight
01 Jun - 16:43:57 10° SW 16:44:32 10° SW 16:45:06 10° SSW daylight
02 Jun - 10:21:46 10° SSW 10:24:54 18° SSE 10:28:03 10° ESE daylight
02 Jun - 12:02:01 10° SW 12:06:13 32° S 12:10:24 10° ESE daylight
02 Jun - 13:43:34 10° WSW 13:47:46 32° S 13:51:55 10° SE daylight
02 Jun - 15:25:55 10° WSW 15:29:05 18° SSW 15:32:13 10° SSE daylight
03 Jun - 09:09:17 10° SE 09:09:27 10° SE 09:09:36 10° SE daylight
03 Jun - 10:46:37 10° SW 10:50:29 25° SSE 10:54:21 10° ESE daylight
03 Jun - 12:27:40 10° WSW 12:31:58 35° S 12:36:14 10° ESE daylight
03 Jun - 14:09:32 10° WSW 14:13:27 26° SSW 14:17:20 10° SE daylight
03 Jun - 15:53:15 10° SW 15:54:31 11° SW 15:55:45 10° SSW daylight
04 Jun - 09:31:49 10° S 09:34:52 17° SSE 09:37:54 10° ESE daylight
04 Jun - 11:11:58 10° SW 11:16:10 32° SSE 11:20:20 10° ESE daylight
04 Jun - 12:53:28 10° WSW 12:57:42 33° S 13:01:54 10° SE daylight
04 Jun - 14:35:45 10° WSW 14:39:02 19° SSW 14:42:18 10° SSE daylight
05 Jun - 09:56:36 10° SSW 10:00:26 25° SSE 10:04:15 10° ESE daylight
05 Jun - 11:37:35 10° WSW 11:41:54 35° S 11:46:11 10° ESE daylight
05 Jun - 13:19:25 10° WSW 13:23:24 27° SSW 13:27:21 10° SE daylight
05 Jun - 15:02:50 10° WSW 15:04:30 12° SW 15:06:09 10° SSW daylight
06 Jun - 08:41:54 10° S 08:44:51 16° SSE 08:47:45 10° ESE daylight
06 Jun - 10:21:54 10° SW 10:26:06 31° SSE 10:30:16 10° ESE daylight
06 Jun - 12:03:23 10° WSW 12:07:38 34° S 12:11:52 10° SE daylight
06 Jun - 13:45:36 10° WSW 13:49:00 20° SSW 13:52:22 10° SSE daylight
